Port Hope, MI

8:01 PM EDT on May 27, 2017 (GMT -0400)
Port Hope

Weather History for KP58 - April, 2014

Change the Weather History Date:

Wednesday, April 23, 2014

  Actual Average Record
Temperature  
Mean Temperature 36 °F -  
Max Temperature 42 °F 50 °F 73 °F (2007)
Min Temperature 30 °F 36 °F 28 °F (2002)
Degree Days  
Heating Degree Days 28    
Moisture  
Dew Point 26 °F    
Average Humidity 65    
Maximum Humidity 86    
Minimum Humidity 33    
Precipitation  
Precipitation 0.00 in - - ()
Sea Level Pressure  
Sea Level Pressure 30.08 in    
Wind  
Wind Speed 7 mph (NNW)    
Max Wind Speed 9 mph    
Max Gust Speed 20 mph    
Averages and records for this station are not official NWS values.
T = Trace of Precipitation, MM = Missing Value Source: NWS Daily Summary

Daily Weather History Graph

Daily Weather History Graph

Search for Another Location

Airport or City:

Trip Planner

Search our weather history database for the weather conditions in past years. The results will help you decide how hot, cold, wet, or windy it might be!

Date:

Astronomy

Apr. 23, 2014 Rise Set
Actual Time 6:34 AM EDT 8:24 PM EDT
Civil Twilight 6:04 AM EDT 8:55 PM EDT
Nautical Twilight 5:26 AM EDT 9:33 PM EDT
Astronomical Twilight 4:45 AM EDT 10:14 PM EDT
Moon 3:18 AM EDT (4/23) 2:19 PM EDT (4/23)
Length of Visible Light 14h 51m
Length of Day
13h 50m
Waning Crescent, 35% of the Moon is Illuminated
Apr 23
Waning Crescent
Apr 29
New
May 6
First Quarter
May 14
Full
May 21
Last Quarter

Hourly Weather History & Observations

Time (EDT) Temp. Windchill Dew Point Humidity Pressure Visibility Wind Dir Wind Speed Gust Speed Precip Events Conditions
12:51 AM 37.9 °F 32.1 °F 33.1 °F 83% 29.94 in - NW 8.1 mph - N/A   Unknown
1:51 AM 37.0 °F 31.0 °F 33.1 °F 86% 29.95 in - NNW 8.1 mph - N/A   Unknown
2:51 AM 37.0 °F 30.4 °F 33.1 °F 86% 29.96 in - NW 9.2 mph 19.6 mph N/A   Unknown
3:51 AM 37.9 °F 32.1 °F 32.0 °F 79% 29.96 in - NNW 8.1 mph - N/A   Unknown
4:51 AM 37.0 °F 31.0 °F 30.9 °F 79% 29.98 in - NNW 8.1 mph - N/A   Unknown
5:51 AM 37.0 °F 30.4 °F 30.9 °F 79% 30.01 in - NNW 9.2 mph - N/A   Unknown
7:51 AM 37.0 °F 31.6 °F 30.0 °F 76% 30.04 in - North 6.9 mph - N/A   Unknown
8:51 AM 37.9 °F 31.5 °F 30.0 °F 73% 30.08 in - NNW 9.2 mph - N/A   Unknown
9:51 AM 37.9 °F 33.5 °F 28.9 °F 70% 30.09 in - North 5.8 mph - N/A   Unknown
10:51 AM 39.0 °F 34.0 °F 28.0 °F 65% 30.11 in - North 6.9 mph - N/A   Unknown
11:51 AM 39.0 °F 34.8 °F 27.0 °F 62% 30.12 in - North 5.8 mph - N/A   Unknown
12:51 PM 39.0 °F 34.8 °F 25.0 °F 57% 30.14 in - NNW 5.8 mph - N/A   Unknown
1:51 PM 41.0 °F 35.8 °F 26.1 °F 55% 30.14 in - North 8.1 mph - N/A   Unknown
2:51 PM 39.9 °F 35.1 °F 24.1 °F 53% 30.14 in - North 6.9 mph - N/A   Unknown
4:51 PM 37.9 °F 32.7 °F 24.1 °F 57% 30.13 in - NE 6.9 mph - N/A   Unknown
5:51 PM 39.0 °F - 19.0 °F 45% 30.13 in - Calm Calm - N/A   Unknown
6:51 PM 39.0 °F - 17.1 °F 41% 30.12 in - Calm Calm - N/A   Unknown
7:51 PM 39.9 °F - 12.9 °F 33% 30.12 in - Calm Calm - N/A   Unknown
8:51 PM 36.0 °F - 17.1 °F 46% 30.14 in - Calm Calm - N/A   Unknown
9:51 PM 34.0 °F - 23.0 °F 64% 30.14 in - Calm Calm - N/A   Unknown
10:51 PM 32.0 °F 28.7 °F 23.0 °F 69% 30.15 in - SW 3.5 mph - N/A   Unknown
11:51 PM 30.9 °F - 24.1 °F 76% 30.16 in - Calm Calm - N/A   Unknown